Wind_Speed
25 25 25 26 26 26 26 25 25 25 25 25 25 25 25 26 26 26 26 27 27 27 27 27 27 27 27 27 26 26 27 28 29 30 29 28 28 27
27 27 27 27 27 27 27 27 27 26 26 26 26 26 26 26 26 26 26 26 26 27 27 27 27 26 27 26 27 27 27 27 27 27 26 27 26 25
28 28 28 29 29 28 28 28 28 28 27 27 28 27 27 27 27 26 26 27 26 26 26 26 26 26 26 26 27 26 26 25 24 24 24 24 24 24
28 28 28 29 29 29 29 29 29 29 28 27 28 28 27 27 27 26 26 26 25 25 26 25 25 25 25 25 25 24 23 22 22 23 24 24 23 24
29 29 29 29 29 29 29 29 28 28 28 28 28 28 27 27 27 26 26 25 24 24 24 24 23 23 23 23 22 22 21 21 21 21 21 22 22 21
27 28 28 28 29 29 29 28 28 27 27 27 27 27 27 27 27 25 24 24 23 23 23 22 22 21 21 21 20 20 19 19 19 19 19 19 19 18
25 26 26 26 28 29 29 28 28 27 26 25 25 26 26 26 25 23 23 22 22 21 21 20 19 19 19 19 18 18 18 18 18 17 17 17 17 17
25 25 25 26 26 26 26 26 26 26 25 24 24 24 23 23 22 22 21 20 19 19 18 18 18 17 17 17 17 17 18 18 17 17 16 16 16 17
23 24 24 24 24 24 24 24 23 23 23 22 22 22 22 21 20 20 19 19 18 17 17 16 16 16 15 15 16 16 16 16 16 16 16 16 16 16
22 22 22 23 22 22 21 22 22 21 21 20 21 21 21 20 20 19 19 18 17 16 16 15 15 15 15 15 15 14 14 14 14 14 15 15 15 16
20 20 21 21 21 20 20 20 20 20 20 19 19 19 18 18 17 17 17 16 15 15 15 15 15 14 14 14 13 12 12 12 12 12 13 14 15 16
17 17 17 18 18 18 18 19 18 18 18 18 17 17 16 16 16 16 15 15 14 14 14 14 14 13 12 11 11 11 11 11 11 12 13 14 15 15
15 14 14 14 15 15 16 17 17 16 16 16 16 16 16 15 15 14 14 13 13 13 13 12 12 12 11 11 10 10 10 10 11 12 13 14 14 14
12 12 12 12 12 12 13 14 14 14 15 15 15 15 14 14 14 13 13 12 12 12 11 11 10 10 10 10 9 9 10 10 11 12 12 12 13 15
8 9 10 10 10 10 10 11 12 13 13 13 14 14 14 13 13 12 11 11 10 10 9 9 9 9 8 8 8 9 9 10 11 11 12 13 15 16
4 5 6 7 8 9 10 11 12 13 13 13 13 13 12 12 11 11 10 9 9 8 8 8 8 7 7 7 8 9 9 9 10 11 13 14 16 17
1 2 4 5 6 8 9 10 11 12 12 12 12 12 12 11 11 10 9 8 7 7 7 6 6 6 7 7 7 8 8 9 10 12 14 15 16 18
3 3 5 5 6 7 8 8 9 11 11 11 11 12 11 10 10 9 8 7 7 6 6 6 5 5 5 6 7 8 9 10 12 14 15 17 18 20
4 5 5 5 6 6 7 7 9 9 10 11 12 11 11 10 9 8 7 6 6 5 5 4 4 4 4 6 7 9 10 12 13 15 17 18 20 22
5 6 6 5 6 6 7 8 8 9 10 11 11 10 10 9 8 8 7 6 5 5 4 4 4 5 6 7 8 10 12 14 15 17 18 20 21 23
7 7 7 7 7 8 8 9 8 9 10 10 9 9 9 8 7 6 6 5 5 4 4 4 5 6 7 9 10 12 14 16 17 18 20 21 23 25
7 7 7 7 7 7 8 8 8 9 9 9 8 8 7 7 6 5 5 4 4 4 4 5 6 8 9 11 12 14 16 17 19 20 22 24 26 27
7 7 7 7 7 7 7 7 7 8 8 7 7 7 6 6 5 5 4 4 4 5 6 7 8 10 12 13 15 16 18 19 21 23 25 27 29 31
Wind_Direction
257 257 257 256 256 257 258 258 259 259 261 262 263 263 264 264 265 267 267 266 267 268 269 268 269 269 270 270 271 272 273 273 273 272 273 271 270 270
258 258 258 257 256 256 257 258 259 260 261 262 262 262 263 263 265 265 266 267 268 269 268 266 266 267 268 269 271 272 272 275 275 272 270 269 268 269
259 259 258 256 256 257 257 258 259 260 260 260 261 263 263 263 264 266 266 266 266 267 266 265 266 266 266 269 269 271 272 275 270 266 266 266 269 271
259 259 258 258 257 256 257 257 259 259 259 259 259 261 262 262 263 264 265 264 265 265 265 267 266 266 267 268 270 271 272 272 269 267 267 266 270 273
260 259 259 258 258 257 257 257 257 258 258 258 258 259 259 261 261 262 263 262 263 263 265 266 266 266 266 268 269 270 270 272 271 270 270 269 270 271
261 260 260 258 258 257 256 256 257 257 258 257 257 256 256 258 260 261 262 263 263 265 264 264 264 263 263 265 267 268 270 272 270 271 271 271 270 271
262 262 260 260 259 257 255 255 255 255 256 257 256 255 254 257 258 259 260 261 260 261 262 260 261 261 260 262 265 266 268 269 270 270 271 270 270 271
266 263 262 261 259 256 253 253 253 253 253 255 255 254 253 253 253 254 256 256 256 257 258 258 258 259 261 262 263 266 270 271 271 271 271 272 272 275
266 265 262 260 257 255 252 251 250 249 249 250 250 250 249 248 247 247 249 250 250 252 252 254 255 258 261 264 267 268 269 270 270 269 269 270 272 276
266 264 262 259 256 253 251 248 246 246 244 245 245 244 243 242 243 244 244 246 248 248 250 252 253 257 262 265 265 265 266 269 269 267 270 272 276 280
266 265 261 258 255 251 247 245 244 242 241 241 239 238 238 237 238 239 241 243 245 246 248 251 254 259 263 263 261 261 264 265 267 271 274 277 282 286
267 265 260 256 254 249 245 241 239 237 236 234 231 230 230 230 233 236 238 238 240 244 248 250 254 257 257 256 255 259 265 268 272 276 280 285 289 292
268 263 257 253 250 246 240 235 232 228 226 224 222 221 222 225 228 230 231 235 239 242 246 247 248 250 252 253 257 263 265 271 277 283 287 290 293 296
267 259 253 248 246 242 232 225 223 217 214 214 214 215 216 219 224 226 228 233 236 239 240 243 248 252 254 256 261 265 270 279 284 287 290 294 298 300
265 258 248 240 236 228 220 217 213 206 204 206 208 210 212 216 218 221 225 227 229 231 233 239 244 248 254 258 267 273 280 285 289 292 296 299 302 305
267 254 237 224 218 211 208 206 203 199 200 200 200 202 206 208 212 217 219 220 220 225 231 237 243 250 259 268 274 280 285 289 293 297 301 305 307 308
221 202 194 192 194 194 194 197 198 195 193 194 194 193 194 195 199 204 208 212 218 226 231 238 246 258 267 271 278 283 289 294 298 302 306 308 310 311
117 141 158 166 170 174 177 184 187 188 188 189 188 188 190 193 196 200 204 208 216 223 231 241 249 253 261 274 282 290 296 301 305 309 309 309 311 313
117 123 132 146 159 167 173 179 180 183 186 188 187 189 190 190 189 191 195 201 210 220 228 235 237 247 268 282 292 298 304 308 310 311 311 311 312 314
118 125 126 134 145 148 150 155 160 164 170 174 174 176 179 180 181 184 191 200 211 220 226 230 248 272 287 294 299 304 307 309 310 311 311 312 313 315
111 120 123 127 132 135 137 138 142 148 155 159 162 167 171 174 175 180 188 199 210 221 235 252 272 289 298 302 306 308 309 309 310 311 312 312 314 315
106 116 120 123 130 134 140 143 145 147 151 156 158 163 171 177 184 190 194 203 220 241 257 273 288 296 302 306 307 308 309 310 312 314 314 314 315 317
106 113 118 120 128 137 144 147 149 152 156 158 161 168 176 181 186 198 206 222 245 261 272 284 293 299 304 307 308 308 309 310 312 314 315 315 316 317
Height
5794 5795 5796 5797 5798 5798 5799 5800 5801 5802 5802 5801 5801 5801 5801 5801 5801 5801 5801 5801 5801 5800 5800 5800 5799 5799 5798 5798 5797 5796 5795 5794 5793 5791 5790 5789 5788 5787
5786 5787 5788 5789 5789 5790 5791 5792 5793 5794 5794 5794 5794 5794 5794 5794 5794 5793 5793 5794 5793 5793 5793 5793 5792 5792 5791 5791 5790 5789 5788 5787 5785 5784 5783 5782 5781 5780
5778 5778 5779 5780 5781 5781 5782 5783 5784 5785 5786 5786 5786 5786 5786 5786 5786 5786 5786 5786 5786 5786 5785 5785 5785 5785 5785 5784 5784 5782 5781 5780 5779 5777 5776 5776 5775 5774
5769 5769 5770 5770 5772 5773 5774 5774 5775 5776 5777 5777 5777 5778 5778 5778 5778 5779 5779 5779 5779 5779 5779 5778 5778 5778 5778 5778 5777 5776 5775 5774 5773 5771 5770 5770 5769 5768
5759 5760 5761 5761 5762 5763 5765 5766 5766 5767 5768 5769 5769 5770 5770 5771 5771 5771 5772 5772 5772 5772 5772 5772 5772 5772 5772 5772 5771 5770 5770 5768 5767 5766 5765 5764 5763 5762
5750 5751 5751 5752 5753 5754 5755 5757 5758 5758 5759 5760 5761 5761 5762 5763 5763 5764 5765 5765 5765 5765 5765 5765 5765 5766 5766 5766 5766 5765 5764 5763 5762 5761 5760 5758 5758 5757
5742 5742 5743 5743 5744 5745 5746 5748 5749 5750 5751 5752 5753 5754 5755 5755 5756 5757 5758 5758 5759 5760 5760 5760 5760 5760 5760 5760 5760 5760 5759 5758 5757 5756 5755 5754 5753 5752
5734 5734 5734 5735 5735 5736 5737 5739 5740 5742 5743 5745 5746 5747 5748 5749 5750 5751 5752 5753 5754 5755 5755 5755 5755 5755 5756 5755 5755 5755 5754 5754 5753 5752 5751 5750 5749 5748
5726 5726 5726 5727 5727 5728 5730 5731 5732 5734 5736 5737 5739 5740 5741 5743 5744 5745 5747 5748 5749 5749 5750 5750 5751 5751 5751 5751 5751 5750 5750 5749 5748 5748 5747 5746 5745 5744
5718 5718 5718 5719 5720 5721 5722 5724 5725 5727 5729 5731 5732 5734 5735 5737 5739 5740 5741 5743 5744 5745 5745 5746 5746 5747 5747 5747 5746 5746 5745 5745 5744 5744 5743 5742 5741 5739
5711 5711 5711 5712 5713 5714 5715 5717 5719 5721 5723 5724 5726 5728 5730 5732 5734 5736 5737 5739 5740 5741 5742 5742 5743 5743 5743 5743 5742 5742 5742 5741 5741 5740 5739 5738 5737 5735
5705 5705 5705 5706 5707 5708 5709 5711 5713 5715 5717 5719 5722 5724 5726 5728 5730 5732 5733 5735 5736 5737 5738 5739 5739 5739 5739 5739 5739 5739 5739 5738 5738 5737 5736 5734 5733 5731
5700 5700 5701 5701 5702 5703 5705 5707 5709 5711 5713 5716 5718 5720 5723 5725 5727 5728 5730 5732 5733 5734 5735 5735 5736 5736 5736 5736 5736 5736 5736 5735 5734 5733 5732 5730 5728 5727
5696 5696 5697 5697 5698 5700 5701 5703 5705 5707 5710 5713 5715 5718 5720 5722 5724 5726 5727 5729 5730 5731 5732 5733 5733 5734 5734 5734 5734 5733 5733 5732 5731 5730 5728 5727 5725 5723
5693 5693 5694 5694 5695 5697 5699 5700 5703 5705 5708 5710 5713 5716 5718 5720 5722 5724 5725 5726 5728 5728 5729 5730 5731 5731 5731 5731 5731 5731 5730 5729 5728 5727 5725 5723 5721 5718
5691 5691 5692 5693 5694 5695 5697 5699 5701 5704 5706 5709 5711 5714 5716 5718 5720 5722 5723 5725 5726 5727 5727 5728 5728 5729 5729 5729 5728 5728 5727 5726 5725 5723 5721 5719 5716 5714
5691 5691 5692 5693 5694 5695 5697 5699 5701 5703 5705 5708 5710 5712 5714 5716 5719 5720 5722 5723 5724 5725 5726 5727 5727 5727 5726 5726 5726 5725 5724 5723 5721 5720 5717 5715 5712 5709
5692 5692 5693 5693 5694 5695 5697 5698 5700 5703 5705 5707 5709 5712 5714 5716 5718 5720 5721 5722 5723 5724 5724 5725 5725 5725 5725 5724 5724 5723 5722 5720 5718 5716 5713 5710 5707 5704
5693 5693 5694 5694 5695 5697 5698 5699 5701 5703 5705 5707 5709 5712 5714 5716 5717 5719 5720 5721 5722 5723 5723 5723 5723 5723 5723 5723 5722 5720 5718 5716 5714 5712 5709 5705 5702 5699
5695 5695 5696 5696 5697 5698 5699 5700 5702 5703 5705 5707 5710 5712 5713 5715 5717 5718 5720 5721 5721 5722 5722 5722 5722 5722 5721 5721 5719 5717 5715 5713 5710 5708 5704 5701 5697 5694
5697 5697 5698 5698 5699 5700 5701 5702 5704 5705 5707 5709 5711 5712 5714 5716 5717 5718 5719 5720 5720 5721 5721 5721 5720 5720 5719 5718 5716 5714 5712 5709 5706 5703 5700 5696 5693 5688
5700 5700 5700 5701 5702 5702 5703 5704 5706 5707 5709 5710 5712 5713 5715 5716 5717 5718 5719 5719 5720 5720 5720 5719 5719 5718 5716 5715 5713 5711 5708 5705 5701 5698 5694 5690 5686 5681
5702 5703 5703 5703 5704 5705 5706 5707 5707 5709 5710 5711 5713 5714 5715 5716 5717 5718 5718 5718 5719 5719 5718 5717 5716 5715 5713 5711 5709 5707 5704 5700 5697 5693 5689 5684 5679 5674